User: anonymous   Login
Location: Newark
(48.5667°N, 7.8167°E)
Time: 18:56:48
(UTC+00:00)
Language:

XW-2D - Orbit

View from above orbital plane
View from above orbital plane
View from above satellite
View from above satellite

Ground track
Ground track

The orbit data is extracted from the following two-line orbital elements,

1 40907U 15049J   21204.16558832  .00000980  00000-0  52683-4 0  9991
2 40907  97.4842 205.8783 0015457  63.2089 355.3394 15.17150486323018
Epoch (UTC): 23 July 2021 03:58:26
Eccentricity: 0.0015457
inclination: 97.4842°
perigee height: 504 km
apogee height: 525 km
right ascension of ascending node: 205.8783°
argument of perigee: 63.2089°
revolutions per day: 15.17150486
mean anomaly at epoch: 355.3394°
orbit number at epoch: 32301

The dashed part of the orbit path shows where the satellite is in the earth's shadow,  

DLR